Regional Weather Roundup
Issued by NWS

Home | Current Version | Previous Version | Text Only | Print | Product List | Glossary On
Versions: 1 2 3 4 5 6 7 8 9 10 11 12 13 14 15 16 17 18 19 20 21 22 23 24 25 26 27 28 29 30 31 32 33 34 35 36 37 38 39 40 41 42 43 44 45 46 47 48 49 50
000
ASUS44 KOUN 040110
RWROK

WEATHER ROUNDUP FOR OKLAHOMA
NATIONAL WEATHER SERVICE NORMAN OK
800 PM CDT FRI JUL 03 2015

NOTE: "FAIR" INDICATES FEW OR NO CLOUDS BELOW 12,000 FEET WITH NO
      SIGNIFICANT WEATHER AND/OR OBSTRUCTIONS TO VISIBILITY.

OKZ001>007-009>012-014-015-017-040200-
NORTHWEST OKLAHOMA AND THE PANHANDLE

CITY           SKY/WX    TMP DP  RH WIND       PRES   REMARKS
GAGE           MOSUNNY   79  66  64 SE7       29.96S
GUYMON         SUNNY     76  63  64 S8        29.99R
ENID/WOODRING  MOCLDY    86  61  42 CALM      29.89R
$$

OKZ016-021>023-033>039-044-045-040200-
SOUTHWEST OKLAHOMA

CITY           SKY/WX    TMP DP  RH WIND       PRES   REMARKS
LAWTON/REGL    CLOUDY    84  68  58 S6        29.90R
LAWTON/FT SILL CLOUDY    83  71  67 E9        29.89S
FREDERICK      MOCLDY    79  72  79 S6        29.86F
CLINTON        MOCLDY    82  65  56 CALM      29.95S
HOBART         CLOUDY    72  66  81 S10       29.94F
ALTUS AFB      MOCLDY    73  68  83 NE18G28   29.92R
$$

OKZ018>020-024>031-040200-
CENTRAL OKLAHOMA

CITY           SKY/WX    TMP DP  RH WIND       PRES   REMARKS
OKLAHOMA CITY  CLOUDY    81  70  69 S3        29.91R
OKC/WILEY POST MOCLDY    82  66  58 S7        29.90S
OKC/TINKER AFB CLOUDY    82  71  68 SW6       29.89S
STILLWATER     CLEAR     84  64  50 N6        29.89S
GUTHRIE        PTCLDY    85  66  53 NE5       29.89S
$$

OKZ008-013-054>072-040200-
NORTHEAST OKLAHOMA

CITY           SKY/WX    TMP DP  RH WIND       PRES   REMARKS
TULSA          PTCLDY    84  71  65 N10       29.86S
TULSA/JONES    CLEAR     85  65  51 N5        29.85F
PONCA CITY     CLEAR     84  64  50 NE12      29.90R
BARTLESVILLE   CLEAR     80  69  69 NE6       29.89S
MUSKOGEE       PTCLDY    81  73  76 S3        29.86R
$$

OKZ032-040>043-046>053-073>077-040200-
SOUTH CENTRAL/SOUTHEAST OKLAHOMA

CITY           SKY/WX    TMP DP  RH WIND       PRES   REMARKS
ARDMORE/DWNTWN CLEAR     81  70  69 CALM      29.89S
MCALESTER      MOCLDY    73  67  81 SW13      29.90R THUNDER
$$



USA.gov is the U.S. government's official web portal to all federal, state and local government web resources and services.